Terug naar catalogus

CZ-6A DEB

ActiefPO
NORAD 61493·DEBRIS·🇨🇳 China

Gelanceerd Aug 6, 2024 vanaf Taiyuan Satellite Launch Center

Loading…

Volgende Passages (komende 24 uur)

TLE

VersSource: Space-Track

Epoch: Sep 14, 2026, 23:25 UTC

1 61493U 24140ABB 26257.97582893  .00000238  00000-0  10361-3 0  9994
2 61493  89.0006 264.9478 0043388 222.9070 136.8733 14.20487522103332

Volg CZ-6A DEB in realtime met AllMySat

Download on the App Store